Time,TemperatureF,DewpointF,PressureIn,WindDirection,WindDirectionDegrees,WindSpeedMPH,WindSpeedGustMPH,Humidity,HourlyPrecipIn,Conditions,Clouds,dailyrainin,SoftwareType,DateUTC
2013-05-25 00:00:00,51.5,41.7,29.91,WSW,246,0.0,0.0,69,0.00,,SKC,0.00,VWS V14.01,2013-05-25 07:00:00,
2013-05-25 00:10:00,51.1,41.7,29.91,WSW,246,0.0,1.0,70,0.00,,SKC,0.00,VWS V14.01,2013-05-25 07:10:00,
2013-05-25 00:15:00,50.9,41.8,29.91,WSW,246,0.0,0.0,71,0.00,,SKC,0.00,VWS V14.01,2013-05-25 07:15:00,
2013-05-25 00:20:00,50.8,41.8,29.91,WSW,246,0.0,1.0,71,0.00,,SKC,0.00,VWS V14.01,2013-05-25 07:20:00,
2013-05-25 00:25:00,50.6,41.6,29.91,WSW,246,0.0,0.0,71,0.00,,SKC,0.00,VWS V14.01,2013-05-25 07:25:00,
2013-05-25 00:30:00,50.4,41.7,29.91,WSW,246,0.0,0.0,72,0.00,,SKC,0.00,VWS V14.01,2013-05-25 07:30:00,
2013-05-25 00:35:00,50.4,42.1,29.91,WSW,246,0.0,0.0,73,0.00,,SKC,0.00,VWS V14.01,2013-05-25 07:35:00,
2013-05-25 00:40:00,50.3,42.3,29.91,WSW,246,0.0,0.0,74,0.00,,SKC,0.00,VWS V14.01,2013-05-25 07:40:00,
2013-05-25 00:50:00,50.1,42.2,29.92,WSW,246,0.0,1.0,74,0.00,,SKC,0.00,VWS V14.01,2013-05-25 07:50:00,
2013-05-25 01:00:00,49.7,41.8,29.92,WSW,246,0.0,0.0,74,0.00,,SKC,0.00,VWS V14.01,2013-05-25 08:00:00,
2013-05-25 01:05:00,49.6,42.0,29.92,WSW,246,0.0,0.0,75,0.00,,SKC,0.00,VWS V14.01,2013-05-25 08:05:00,
2013-05-25 01:10:00,49.4,41.8,29.92,WSW,246,0.0,0.0,75,0.00,,SKC,0.00,VWS V14.01,2013-05-25 08:10:00,
2013-05-25 01:20:00,49.0,41.4,29.92,WSW,246,0.0,0.0,75,0.00,,SKC,0.00,VWS V14.01,2013-05-25 08:20:00,
2013-05-25 01:25:00,48.8,41.2,29.91,WSW,246,0.0,0.0,75,0.00,,SKC,0.00,VWS V14.01,2013-05-25 08:25:00,
2013-05-25 01:35:00,48.7,41.8,29.91,WSW,246,0.0,0.0,77,0.00,,SKC,0.00,VWS V14.01,2013-05-25 08:35:00,
2013-05-25 01:45:00,48.6,41.7,29.91,WSW,246,0.0,2.0,77,0.00,,SKC,0.00,VWS V14.01,2013-05-25 08:45:00,
2013-05-25 01:50:00,48.5,42.0,29.91,WSW,246,0.0,0.0,78,0.00,,SKC,0.00,VWS V14.01,2013-05-25 08:50:00,
2013-05-25 02:00:00,48.4,41.9,29.91,WSW,246,0.0,0.0,78,0.00,,SKC,0.00,VWS V14.01,2013-05-25 09:00:00,
2013-05-25 02:05:00,48.4,42.2,29.91,WSW,246,1.0,1.0,79,0.00,,SKC,0.00,VWS V14.01,2013-05-25 09:05:00,
2013-05-25 02:15:00,48.5,42.3,29.91,WSW,246,0.0,1.0,79,0.00,,SKC,0.00,VWS V14.01,2013-05-25 09:15:00,
2013-05-25 02:20:00,48.5,42.6,29.91,WSW,246,0.0,0.0,80,0.00,,SKC,0.00,VWS V14.01,2013-05-25 09:20:00,
2013-05-25 02:25:00,48.4,42.5,29.91,WSW,246,0.0,0.0,80,0.00,,SKC,0.00,VWS V14.01,2013-05-25 09:25:00,
2013-05-25 02:30:00,48.4,42.5,29.91,WSW,246,0.0,0.0,80,0.00,,SKC,0.00,VWS V14.01,2013-05-25 09:30:00,
2013-05-25 02:40:00,48.2,42.3,29.92,WSW,246,0.0,0.0,80,0.00,,SKC,0.00,VWS V14.01,2013-05-25 09:40:00,
2013-05-25 02:45:00,48.0,42.1,29.91,WSW,246,0.0,0.0,80,0.00,,SKC,0.00,VWS V14.01,2013-05-25 09:45:00,
2013-05-25 02:50:00,47.9,42.0,29.91,WSW,246,0.0,0.0,80,0.00,,SKC,0.00,VWS V14.01,2013-05-25 09:50:00,
2013-05-25 03:00:00,47.5,42.0,29.91,WSW,246,0.0,0.0,81,0.00,,SKC,0.00,VWS V14.01,2013-05-25 10:00:00,
2013-05-25 03:05:00,47.3,41.8,29.92,WSW,246,2.0,2.0,81,0.00,,SKC,0.00,VWS V14.01,2013-05-25 10:05:00,
2013-05-25 03:10:00,47.2,41.7,29.91,WSW,246,0.0,3.0,81,0.00,,SKC,0.00,VWS V14.01,2013-05-25 10:10:00,
2013-05-25 03:15:00,47.1,41.9,29.91,WSW,246,0.0,0.0,82,0.00,,SKC,0.00,VWS V14.01,2013-05-25 10:15:00,
2013-05-25 03:20:00,47.1,41.9,29.92,WSW,246,0.0,0.0,82,0.00,,SKC,0.00,VWS V14.01,2013-05-25 10:20:00,
2013-05-25 03:25:00,47.1,41.9,29.92,WSW,246,0.0,0.0,82,0.00,,SKC,0.00,VWS V14.01,2013-05-25 10:25:00,
2013-05-25 03:30:00,47.1,41.9,29.92,WSW,246,0.0,0.0,82,0.00,,SKC,0.00,VWS V14.01,2013-05-25 10:30:00,
2013-05-25 03:35:00,47.2,42.3,29.91,WSW,246,0.0,0.0,83,0.00,,SKC,0.00,VWS V14.01,2013-05-25 10:35:00,
2013-05-25 03:45:00,47.4,42.2,29.91,WSW,246,0.0,0.0,82,0.00,,SKC,0.00,VWS V14.01,2013-05-25 10:45:00,
2013-05-25 03:50:00,47.5,42.3,29.91,WSW,246,0.0,1.0,82,0.00,,SKC,0.00,VWS V14.01,2013-05-25 10:50:00,
2013-05-25 03:55:00,47.8,42.6,29.91,WSW,246,0.0,0.0,82,0.00,,SKC,0.00,VWS V14.01,2013-05-25 10:55:00,
2013-05-25 04:00:00,47.8,42.3,29.92,SE,138,0.0,2.0,81,0.00,,SKC,0.00,VWS V14.01,2013-05-25 11:00:00,
2013-05-25 04:05:00,47.9,42.7,29.91,SE,138,0.0,1.0,82,0.00,,SKC,0.00,VWS V14.01,2013-05-25 11:05:00,
2013-05-25 04:10:00,48.0,42.8,29.91,SE,138,0.0,0.0,82,0.00,,SKC,0.00,VWS V14.01,2013-05-25 11:10:00,
2013-05-25 04:15:00,47.9,42.7,29.91,SE,138,0.0,0.0,82,0.00,,SKC,0.00,VWS V14.01,2013-05-25 11:15:00,
2013-05-25 04:20:00,48.0,42.5,29.91,SE,138,0.0,0.0,81,0.00,,SKC,0.00,VWS V14.01,2013-05-25 11:20:00,
2013-05-25 04:25:00,47.8,42.3,29.92,SE,138,0.0,0.0,81,0.00,,SKC,0.00,VWS V14.01,2013-05-25 11:25:00,
2013-05-25 04:30:00,47.7,42.5,29.91,SE,138,0.0,0.0,82,0.00,,SKC,0.00,VWS V14.01,2013-05-25 11:30:00,
2013-05-25 04:35:00,47.6,42.4,29.91,SE,138,0.0,1.0,82,0.00,,SKC,0.00,VWS V14.01,2013-05-25 11:35:00,
2013-05-25 04:40:00,47.5,42.3,29.92,SE,138,0.0,1.0,82,0.00,,SKC,0.00,VWS V14.01,2013-05-25 11:40:00,
2013-05-25 04:50:00,47.2,42.3,29.92,SE,138,0.0,0.0,83,0.00,,SKC,0.00,VWS V14.01,2013-05-25 11:50:00,
2013-05-25 04:55:00,47.1,42.2,29.92,SE,138,0.0,1.0,83,0.00,,SKC,0.00,VWS V14.01,2013-05-25 11:55:00,
2013-05-25 05:05:00,46.9,42.0,29.92,SE,138,0.0,0.0,83,0.00,,SKC,0.00,VWS V14.01,2013-05-25 12:05:00,
2013-05-25 05:10:00,46.8,42.2,29.92,SE,138,0.0,0.0,84,0.00,,SKC,0.00,VWS V14.01,2013-05-25 12:10:00,
2013-05-25 05:15:00,46.7,42.1,29.92,SE,138,0.0,1.0,84,0.00,,SKC,0.00,VWS V14.01,2013-05-25 12:15:00,
2013-05-25 05:25:00,46.5,42.2,29.92,SE,138,0.0,0.0,85,0.00,,SKC,0.00,VWS V14.01,2013-05-25 12:25:00,
2013-05-25 05:30:00,46.4,42.1,29.92,SE,138,0.0,0.0,85,0.00,,SKC,0.00,VWS V14.01,2013-05-25 12:30:00,
2013-05-25 05:35:00,46.4,42.1,29.92,SE,138,0.0,0.0,85,0.00,,SKC,0.00,VWS V14.01,2013-05-25 12:35:00,
2013-05-25 05:40:00,46.3,42.0,29.93,SE,138,0.0,1.0,85,0.00,,SKC,0.00,VWS V14.01,2013-05-25 12:40:00,
2013-05-25 05:45:00,46.3,42.0,29.92,SE,138,0.0,0.0,85,0.00,,SKC,0.00,VWS V14.01,2013-05-25 12:45:00,
2013-05-25 05:50:00,46.3,42.0,29.93,SE,138,0.0,0.0,85,0.00,,SKC,0.00,VWS V14.01,2013-05-25 12:50:00,
2013-05-25 05:55:00,46.3,42.0,29.93,SE,138,0.0,0.0,85,0.00,,SKC,0.00,VWS V14.01,2013-05-25 12:55:00,
2013-05-25 06:00:00,46.3,42.3,29.93,SE,138,0.0,0.0,86,0.00,,SKC,0.00,VWS V14.01,2013-05-25 13:00:00,
2013-05-25 06:05:00,46.2,42.2,29.93,SE,138,0.0,0.0,86,0.00,,SKC,0.00,VWS V14.01,2013-05-25 13:05:00,
2013-05-25 06:15:00,46.1,42.2,29.94,SE,138,0.0,0.0,86,0.00,,SKC,0.00,VWS V14.01,2013-05-25 13:15:00,
2013-05-25 06:20:00,46.2,42.2,29.94,SE,138,0.0,0.0,86,0.00,,SKC,0.00,VWS V14.01,2013-05-25 13:20:00,
2013-05-25 06:25:00,46.3,42.3,29.94,SE,138,0.0,0.0,86,0.00,,SKC,0.00,VWS V14.01,2013-05-25 13:25:00,
2013-05-25 06:30:00,46.4,42.5,29.94,SE,138,0.0,0.0,86,0.00,,SKC,0.00,VWS V14.01,2013-05-25 13:30:00,
2013-05-25 06:35:00,46.4,42.5,29.94,SE,138,0.0,2.0,86,0.00,,SKC,0.00,VWS V14.01,2013-05-25 13:35:00,
2013-05-25 06:45:00,46.9,42.9,29.94,SE,138,0.0,0.0,86,0.00,,SKC,0.00,VWS V14.01,2013-05-25 13:45:00,
2013-05-25 06:50:00,47.2,43.2,29.94,SE,138,0.0,0.0,86,0.00,,SKC,0.00,VWS V14.01,2013-05-25 13:50:00,
2013-05-25 06:55:00,47.4,43.4,29.94,SE,138,0.0,0.0,86,0.00,,SKC,0.00,VWS V14.01,2013-05-25 13:55:00,
2013-05-25 07:00:00,47.8,43.8,29.94,SE,138,0.0,0.0,86,0.00,,SKC,0.00,VWS V14.01,2013-05-25 14:00:00,
2013-05-25 07:10:00,49.1,44.2,29.95,SW,227,0.0,3.0,83,0.00,,SKC,0.00,VWS V14.01,2013-05-25 14:10:00,
2013-05-25 07:15:00,49.6,44.3,29.94,SW,227,0.0,0.0,82,0.00,,SKC,0.00,VWS V14.01,2013-05-25 14:15:00,
2013-05-25 07:20:00,50.1,44.8,29.95,SW,227,0.0,0.0,82,0.00,,SKC,0.00,VWS V14.01,2013-05-25 14:20:00,
2013-05-25 07:25:00,51.0,44.7,29.95,WNW,295,0.0,4.0,79,0.00,,SKC,0.00,VWS V14.01,2013-05-25 14:25:00,
2013-05-25 07:30:00,51.6,45.0,29.95,WNW,290,0.0,2.0,78,0.00,,SKC,0.00,VWS V14.01,2013-05-25 14:30:00,
2013-05-25 07:40:00,52.7,45.0,29.95,West,280,0.0,5.0,75,0.00,,SKC,0.00,VWS V14.01,2013-05-25 14:40:00,
2013-05-25 07:50:00,53.5,45.1,29.94,WNW,290,0.0,5.0,73,0.00,,SKC,0.00,VWS V14.01,2013-05-25 14:50:00,
2013-05-25 07:55:00,53.9,45.1,29.95,WNW,290,0.0,1.0,72,0.00,,SKC,0.00,VWS V14.01,2013-05-25 14:55:00,
2013-05-25 08:00:00,54.3,45.1,29.94,West,262,0.0,5.0,71,0.00,,SKC,0.00,VWS V14.01,2013-05-25 15:00:00,
2013-05-25 08:05:00,54.7,45.1,29.95,SSW,196,2.0,5.0,70,0.00,,SKC,0.00,VWS V14.01,2013-05-25 15:05:00,
2013-05-25 08:10:00,55.2,44.8,29.95,South,178,0.0,4.0,68,0.00,,SKC,0.00,VWS V14.01,2013-05-25 15:10:00,
2013-05-25 08:15:00,55.8,45.4,29.95,WSW,242,0.0,5.0,68,0.00,,SKC,0.00,VWS V14.01,2013-05-25 15:15:00,
2013-05-25 08:20:00,56.2,45.4,29.95,West,270,0.0,6.0,67,0.00,,SKC,0.00,VWS V14.01,2013-05-25 15:20:00,
2013-05-25 08:25:00,56.4,45.2,29.95,WSW,240,1.0,5.0,66,0.00,,SKC,0.00,VWS V14.01,2013-05-25 15:25:00,
2013-05-25 08:30:00,56.7,45.1,29.95,South,182,0.0,3.0,65,0.00,,SKC,0.00,VWS V14.01,2013-05-25 15:30:00,
2013-05-25 08:35:00,57.0,45.0,29.95,WSW,246,1.0,5.0,64,0.00,,SKC,0.00,VWS V14.01,2013-05-25 15:35:00,
2013-05-25 08:40:00,57.3,45.2,29.95,WSW,241,0.0,2.0,64,0.00,,SKC,0.00,VWS V14.01,2013-05-25 15:40:00,
2013-05-25 08:45:00,57.5,45.4,29.95,South,172,0.0,6.0,64,0.00,,SKC,0.00,VWS V14.01,2013-05-25 15:45:00,
2013-05-25 08:50:00,57.7,45.2,29.96,South,176,0.0,5.0,63,0.00,,SKC,0.00,VWS V14.01,2013-05-25 15:50:00,
2013-05-25 08:55:00,57.8,45.3,29.96,WSW,254,0.0,6.0,63,0.00,,SKC,0.00,VWS V14.01,2013-05-25 15:55:00,
2013-05-25 09:00:00,58.0,45.5,29.96,SW,221,0.0,4.0,63,0.00,,SKC,0.00,VWS V14.01,2013-05-25 16:00:00,
2013-05-25 09:05:00,58.2,45.7,29.96,SSW,206,0.0,8.0,63,0.00,,SKC,0.00,VWS V14.01,2013-05-25 16:05:00,
2013-05-25 09:10:00,58.3,45.8,29.96,SW,219,2.0,6.0,63,0.00,,SKC,0.00,VWS V14.01,2013-05-25 16:10:00,
2013-05-25 09:15:00,58.6,46.1,29.96,SSE,154,0.0,5.0,63,0.00,,SKC,0.00,VWS V14.01,2013-05-25 16:15:00,
2013-05-25 09:20:00,58.8,45.4,29.96,NW,315,0.0,6.0,61,0.00,,SKC,0.00,VWS V14.01,2013-05-25 16:20:00,
2013-05-25 09:25:00,58.9,45.9,29.96,WSW,242,0.0,2.0,62,0.00,,SKC,0.00,VWS V14.01,2013-05-25 16:25:00,
2013-05-25 09:30:00,59.0,46.0,29.96,SSW,208,0.0,12.0,62,0.00,,SKC,0.00,VWS V14.01,2013-05-25 16:30:00,
2013-05-25 09:40:00,59.7,47.1,29.96,WNW,292,0.0,4.0,63,0.00,,SKC,0.00,VWS V14.01,2013-05-25 16:40:00,
2013-05-25 09:45:00,60.4,46.9,29.96,West,279,1.0,6.0,61,0.00,,SKC,0.00,VWS V14.01,2013-05-25 16:45:00,
2013-05-25 09:50:00,61.0,47.0,29.96,South,175,1.0,6.0,60,0.00,,SKC,0.00,VWS V14.01,2013-05-25 16:50:00,
2013-05-25 09:55:00,61.6,47.6,29.96,West,259,0.0,6.0,60,0.00,,SKC,0.00,VWS V14.01,2013-05-25 16:55:00,
2013-05-25 10:00:00,61.9,47.9,29.96,SSE,164,4.0,7.0,60,0.00,,SKC,0.00,VWS V14.01,2013-05-25 17:00:00,
2013-05-25 10:05:00,62.1,47.6,29.96,South,177,4.0,5.0,59,0.00,,SKC,0.00,VWS V14.01,2013-05-25 17:05:00,
2013-05-25 10:10:00,62.6,48.1,29.96,NW,317,0.0,4.0,59,0.00,,SKC,0.00,VWS V14.01,2013-05-25 17:10:00,
2013-05-25 10:15:00,63.3,48.3,29.96,SSW,198,1.0,6.0,58,0.00,,SKC,0.00,VWS V14.01,2013-05-25 17:15:00,
2013-05-25 10:20:00,63.5,48.0,29.96,SSW,211,1.0,10.0,57,0.00,,SKC,0.00,VWS V14.01,2013-05-25 17:20:00,
2013-05-25 10:25:00,63.5,48.5,29.96,South,171,2.0,7.0,58,0.00,,SKC,0.00,VWS V14.01,2013-05-25 17:25:00,
2013-05-25 10:30:00,63.7,48.2,29.96,SSE,161,5.0,7.0,57,0.00,,SKC,0.00,VWS V14.01,2013-05-25 17:30:00,
2013-05-25 10:35:00,63.5,48.0,29.96,WNW,285,3.0,7.0,57,0.00,,SKC,0.00,VWS V14.01,2013-05-25 17:35:00,
2013-05-25 10:40:00,64.0,48.5,29.96,WNW,286,1.0,8.0,57,0.00,,SKC,0.00,VWS V14.01,2013-05-25 17:40:00,
2013-05-25 10:45:00,64.6,48.1,29.96,SSE,147,1.0,5.0,55,0.00,,SKC,0.00,VWS V14.01,2013-05-25 17:45:00,
2013-05-25 10:50:00,64.9,48.4,29.96,WNW,293,1.0,6.0,55,0.00,,SKC,0.00,VWS V14.01,2013-05-25 17:50:00,
2013-05-25 10:55:00,65.5,48.4,29.96,SSE,165,0.0,7.0,54,0.00,,SKC,0.00,VWS V14.01,2013-05-25 17:55:00,
2013-05-25 11:00:00,66.0,48.4,29.96,SW,230,1.0,7.0,53,0.00,,SKC,0.00,VWS V14.01,2013-05-25 18:00:00,
2013-05-25 11:05:00,66.2,48.6,29.97,SSE,167,2.0,10.0,53,0.00,,SKC,0.00,VWS V14.01,2013-05-25 18:05:00,
2013-05-25 11:10:00,66.1,48.5,29.96,South,190,4.0,6.0,53,0.00,,SKC,0.00,VWS V14.01,2013-05-25 18:10:00,
2013-05-25 11:15:00,65.7,48.6,29.97,South,172,2.0,7.0,54,0.00,,SKC,0.00,VWS V14.01,2013-05-25 18:15:00,
2013-05-25 11:20:00,65.7,48.6,29.97,South,172,5.0,7.0,54,0.00,,SKC,0.00,VWS V14.01,2013-05-25 18:20:00,
2013-05-25 11:25:00,65.9,48.3,29.96,South,173,0.0,5.0,53,0.00,,SKC,0.00,VWS V14.01,2013-05-25 18:25:00,
2013-05-25 11:30:00,66.1,48.0,29.97,South,190,2.0,6.0,52,0.00,,SKC,0.00,VWS V14.01,2013-05-25 18:30:00,
2013-05-25 11:35:00,66.1,48.0,29.96,South,183,2.0,7.0,52,0.00,,SKC,0.00,VWS V14.01,2013-05-25 18:35:00,
2013-05-25 11:40:00,66.1,48.0,29.96,WSW,237,2.0,7.0,52,0.00,,SKC,0.00,VWS V14.01,2013-05-25 18:40:00,
2013-05-25 11:45:00,66.4,48.3,29.97,South,191,4.0,8.0,52,0.00,,SKC,0.00,VWS V14.01,2013-05-25 18:45:00,
2013-05-25 11:50:00,66.4,48.3,29.96,SSE,158,6.0,6.0,52,0.00,,SKC,0.00,VWS V14.01,2013-05-25 18:50:00,
2013-05-25 11:55:00,66.3,48.2,29.96,South,175,4.0,7.0,52,0.00,,SKC,0.00,VWS V14.01,2013-05-25 18:55:00,
2013-05-25 12:00:00,66.6,48.4,29.96,South,176,4.0,6.0,52,0.00,,SKC,0.00,VWS V14.01,2013-05-25 19:00:00,
2013-05-25 12:05:00,67.4,48.7,29.96,West,265,1.0,6.0,51,0.00,,SKC,0.00,VWS V14.01,2013-05-25 19:05:00,
2013-05-25 12:10:00,68.5,48.6,29.96,SSW,206,1.0,8.0,49,0.00,,SKC,0.00,VWS V14.01,2013-05-25 19:10:00,
2013-05-25 12:15:00,68.8,48.3,29.96,South,178,1.0,6.0,48,0.00,,SKC,0.00,VWS V14.01,2013-05-25 19:15:00,
2013-05-25 12:20:00,68.6,48.7,29.97,South,170,0.0,6.0,49,0.00,,SKC,0.00,VWS V14.01,2013-05-25 19:20:00,
2013-05-25 12:25:00,68.9,49.0,29.96,South,181,1.0,7.0,49,0.00,,SKC,0.00,VWS V14.01,2013-05-25 19:25:00,
2013-05-25 12:30:00,68.8,48.3,29.96,SSW,213,1.0,9.0,48,0.00,,SKC,0.00,VWS V14.01,2013-05-25 19:30:00,
2013-05-25 12:35:00,69.3,48.8,29.96,SW,229,2.0,6.0,48,0.00,,SKC,0.00,VWS V14.01,2013-05-25 19:35:00,
2013-05-25 12:40:00,70.0,48.9,29.96,WNW,293,1.0,9.0,47,0.00,,SKC,0.00,VWS V14.01,2013-05-25 19:40:00,
2013-05-25 12:45:00,70.2,49.6,29.96,West,267,1.0,9.0,48,0.00,,SKC,0.00,VWS V14.01,2013-05-25 19:45:00,
2013-05-25 12:50:00,70.2,49.0,29.96,WSW,250,2.0,7.0,47,0.00,,SKC,0.00,VWS V14.01,2013-05-25 19:50:00,
2013-05-25 12:55:00,70.1,49.0,29.96,WNW,298,1.0,6.0,47,0.00,,SKC,0.00,VWS V14.01,2013-05-25 19:55:00,
2013-05-25 13:00:00,70.6,48.8,29.96,SE,143,1.0,8.0,46,0.00,,SKC,0.00,VWS V14.01,2013-05-25 20:00:00,
2013-05-25 13:05:00,70.7,48.9,29.96,West,261,2.0,10.0,46,0.00,,SKC,0.00,VWS V14.01,2013-05-25 20:05:00,
2013-05-25 13:10:00,71.1,49.3,29.96,WSW,252,1.0,5.0,46,0.00,,SKC,0.00,VWS V14.01,2013-05-25 20:10:00,
2013-05-25 13:15:00,71.4,49.0,29.96,SSE,161,0.0,7.0,45,0.00,,SKC,0.00,VWS V14.01,2013-05-25 20:15:00,
2013-05-25 13:20:00,71.1,49.3,29.96,South,173,0.0,6.0,46,0.00,,SKC,0.00,VWS V14.01,2013-05-25 20:20:00,
2013-05-25 13:25:00,70.8,49.0,29.96,WNW,290,6.0,9.0,46,0.00,,SKC,0.00,VWS V14.01,2013-05-25 20:25:00,
2013-05-25 13:30:00,70.7,48.9,29.95,West,260,4.0,7.0,46,0.00,,SKC,0.00,VWS V14.01,2013-05-25 20:30:00,
2013-05-25 13:35:00,70.7,48.9,29.96,West,281,0.0,8.0,46,0.00,,SKC,0.00,VWS V14.01,2013-05-25 20:35:00,
2013-05-25 13:40:00,71.0,49.2,29.96,North,351,1.0,10.0,46,0.00,,SKC,0.00,VWS V14.01,2013-05-25 20:40:00,
2013-05-25 13:45:00,71.4,49.0,29.95,South,186,4.0,8.0,45,0.00,,SKC,0.00,VWS V14.01,2013-05-25 20:45:00,
2013-05-25 13:50:00,71.6,49.8,29.96,SSW,196,2.0,6.0,46,0.00,,SKC,0.00,VWS V14.01,2013-05-25 20:50:00,
2013-05-25 13:55:00,71.5,49.7,29.96,South,182,2.0,6.0,46,0.00,,SKC,0.00,VWS V14.01,2013-05-25 20:55:00,
2013-05-25 14:00:00,71.5,49.7,29.95,WSW,257,1.0,9.0,46,0.00,,SKC,0.00,VWS V14.01,2013-05-25 21:00:00,
2013-05-25 14:05:00,71.7,49.8,29.95,WSW,253,2.0,6.0,46,0.00,,SKC,0.00,VWS V14.01,2013-05-25 21:05:00,
2013-05-25 14:10:00,71.6,49.8,29.95,South,188,3.0,7.0,46,0.00,,SKC,0.00,VWS V14.01,2013-05-25 21:10:00,
2013-05-25 14:15:00,71.5,49.7,29.95,SSW,206,5.0,7.0,46,0.00,,SKC,0.00,VWS V14.01,2013-05-25 21:15:00,
2013-05-25 14:20:00,71.8,49.9,29.95,South,171,0.0,6.0,46,0.00,,SKC,0.00,VWS V14.01,2013-05-25 21:20:00,
2013-05-25 14:25:00,71.7,49.2,29.95,South,180,4.0,7.0,45,0.00,,SKC,0.00,VWS V14.01,2013-05-25 21:25:00,
2013-05-25 14:30:00,71.5,49.7,29.95,SW,227,2.0,8.0,46,0.00,,SKC,0.00,VWS V14.01,2013-05-25 21:30:00,
2013-05-25 14:35:00,71.3,49.5,29.95,WSW,241,0.0,8.0,46,0.00,,SKC,0.00,VWS V14.01,2013-05-25 21:35:00,
2013-05-25 14:40:00,71.5,49.7,29.95,SW,223,2.0,10.0,46,0.00,,SKC,0.00,VWS V14.01,2013-05-25 21:40:00,
2013-05-25 14:45:00,71.7,49.2,29.95,South,169,1.0,6.0,45,0.00,,SKC,0.00,VWS V14.01,2013-05-25 21:45:00,
2013-05-25 14:50:00,72.0,49.5,29.95,SSE,167,5.0,6.0,45,0.00,,SKC,0.00,VWS V14.01,2013-05-25 21:50:00,
2013-05-25 14:55:00,72.3,49.8,29.95,NW,317,0.0,6.0,45,0.00,,SKC,0.00,VWS V14.01,2013-05-25 21:55:00,
2013-05-25 15:00:00,72.4,49.3,29.95,WNW,288,2.0,5.0,44,0.00,,SKC,0.00,VWS V14.01,2013-05-25 22:00:00,
2013-05-25 15:05:00,72.6,49.5,29.95,SSW,202,1.0,7.0,44,0.00,,SKC,0.00,VWS V14.01,2013-05-25 22:05:00,
2013-05-25 15:10:00,72.9,49.7,29.95,South,175,2.0,7.0,44,0.00,,SKC,0.00,VWS V14.01,2013-05-25 22:10:00,
2013-05-25 15:15:00,72.5,50.0,29.95,SSE,168,5.0,8.0,45,0.00,,SKC,0.00,VWS V14.01,2013-05-25 22:15:00,
2013-05-25 15:20:00,71.7,48.7,29.95,South,188,0.0,9.0,44,0.00,,SKC,0.00,VWS V14.01,2013-05-25 22:20:00,
2013-05-25 15:25:00,71.1,48.7,29.95,South,178,7.0,8.0,45,0.00,,SKC,0.00,VWS V14.01,2013-05-25 22:25:00,
2013-05-25 15:30:00,70.6,48.2,29.95,WSW,255,1.0,9.0,45,0.00,,SKC,0.00,VWS V14.01,2013-05-25 22:30:00,
2013-05-25 15:35:00,71.1,48.7,29.94,South,178,1.0,9.0,45,0.00,,SKC,0.00,VWS V14.01,2013-05-25 22:35:00,
2013-05-25 15:40:00,71.7,48.7,29.94,South,178,1.0,7.0,44,0.00,,SKC,0.00,VWS V14.01,2013-05-25 22:40:00,
2013-05-25 15:45:00,72.3,49.2,29.94,South,175,2.0,9.0,44,0.00,,SKC,0.00,VWS V14.01,2013-05-25 22:45:00,
2013-05-25 15:50:00,72.3,48.6,29.94,West,271,4.0,12.0,43,0.00,,SKC,0.00,VWS V14.01,2013-05-25 22:50:00,
2013-05-25 15:55:00,72.4,48.7,29.94,East,85,0.0,7.0,43,0.00,,SKC,0.00,VWS V14.01,2013-05-25 22:55:00,
2013-05-25 16:00:00,72.2,49.1,29.94,SSW,209,1.0,9.0,44,0.00,,SKC,0.00,VWS V14.01,2013-05-25 23:00:00,
2013-05-25 16:05:00,72.3,48.6,29.94,South,183,2.0,6.0,43,0.00,,SKC,0.00,VWS V14.01,2013-05-25 23:05:00,
2013-05-25 16:10:00,71.7,48.7,29.94,NNW,346,5.0,9.0,44,0.00,,SKC,0.00,VWS V14.01,2013-05-25 23:10:00,
2013-05-25 16:15:00,72.0,48.9,29.94,South,184,0.0,6.0,44,0.00,,SKC,0.00,VWS V14.01,2013-05-25 23:15:00,
2013-05-25 16:20:00,72.2,49.1,29.94,SE,130,4.0,7.0,44,0.00,,SKC,0.00,VWS V14.01,2013-05-25 23:20:00,
2013-05-25 16:25:00,71.7,48.7,29.94,South,169,1.0,5.0,44,0.00,,SKC,0.00,VWS V14.01,2013-05-25 23:25:00,
2013-05-25 16:30:00,70.9,48.5,29.94,SSW,193,1.0,8.0,45,0.00,,SKC,0.00,VWS V14.01,2013-05-25 23:30:00,
2013-05-25 16:35:00,71.3,48.9,29.94,SSE,166,0.0,8.0,45,0.00,,SKC,0.00,VWS V14.01,2013-05-25 23:35:00,
2013-05-25 16:40:00,71.3,48.9,29.94,South,180,1.0,5.0,45,0.00,,SKC,0.00,VWS V14.01,2013-05-25 23:40:00,
2013-05-25 16:45:00,71.5,49.1,29.94,WSW,238,2.0,8.0,45,0.00,,SKC,0.00,VWS V14.01,2013-05-25 23:45:00,
2013-05-25 16:50:00,70.8,49.0,29.94,West,280,0.0,8.0,46,0.00,,SKC,0.00,VWS V14.01,2013-05-25 23:50:00,
2013-05-25 16:55:00,70.3,49.1,29.94,SSE,161,0.0,11.0,47,0.00,,SKC,0.00,VWS V14.01,2013-05-25 23:55:00,
2013-05-25 17:00:00,69.9,48.8,29.94,West,265,1.0,7.0,47,0.00,,SKC,0.00,VWS V14.01,2013-05-26 00:00:00,
2013-05-25 17:05:00,70.0,48.9,29.94,West,270,0.0,11.0,47,0.00,,SKC,0.00,VWS V14.01,2013-05-26 00:05:00,
2013-05-25 17:10:00,70.1,48.4,29.94,WSW,254,3.0,7.0,46,0.00,,SKC,0.00,VWS V14.01,2013-05-26 00:10:00,
2013-05-25 17:15:00,70.1,48.4,29.94,WSW,244,0.0,6.0,46,0.00,,SKC,0.00,VWS V14.01,2013-05-26 00:15:00,
2013-05-25 17:20:00,70.1,48.4,29.94,SW,229,1.0,7.0,46,0.00,,SKC,0.00,VWS V14.01,2013-05-26 00:20:00,
2013-05-25 17:25:00,70.1,49.0,29.95,WSW,244,2.0,7.0,47,0.00,,SKC,0.00,VWS V14.01,2013-05-26 00:25:00,
2013-05-25 17:30:00,70.0,48.9,29.95,South,183,1.0,6.0,47,0.00,,SKC,0.00,VWS V14.01,2013-05-26 00:30:00,
2013-05-25 17:35:00,69.9,49.3,29.95,WNW,282,5.0,8.0,48,0.00,,SKC,0.00,VWS V14.01,2013-05-26 00:35:00,
2013-05-25 17:40:00,69.6,48.5,29.95,SSE,161,3.0,9.0,47,0.00,,SKC,0.00,VWS V14.01,2013-05-26 00:40:00,
2013-05-25 17:45:00,69.2,49.2,29.95,South,178,1.0,8.0,49,0.00,,SKC,0.00,VWS V14.01,2013-05-26 00:45:00,
2013-05-25 17:55:00,67.7,48.9,29.95,South,176,3.0,8.0,51,0.00,,SKC,0.00,VWS V14.01,2013-05-26 00:55:00,
2013-05-25 18:00:00,67.6,49.4,29.95,South,173,3.0,5.0,52,0.00,,SKC,0.00,VWS V14.01,2013-05-26 01:00:00,
2013-05-25 18:05:00,66.9,49.2,29.95,South,171,1.0,8.0,53,0.00,,SKC,0.00,VWS V14.01,2013-05-26 01:05:00,
2013-05-25 18:10:00,66.7,49.5,29.95,SW,219,1.0,5.0,54,0.00,,SKC,0.00,VWS V14.01,2013-05-26 01:10:00,
2013-05-25 18:15:00,66.5,49.4,29.95,South,188,6.0,6.0,54,0.00,,SKC,0.00,VWS V14.01,2013-05-26 01:15:00,
2013-05-25 18:20:00,66.5,49.8,29.94,NNW,342,2.0,6.0,55,0.00,,SKC,0.00,VWS V14.01,2013-05-26 01:20:00,
2013-05-25 18:25:00,66.1,49.5,29.94,SSW,205,0.0,6.0,55,0.00,,SKC,0.00,VWS V14.01,2013-05-26 01:25:00,
2013-05-25 18:30:00,65.5,48.9,29.95,South,178,0.0,6.0,55,0.00,,SKC,0.00,VWS V14.01,2013-05-26 01:30:00,
2013-05-25 18:35:00,64.4,48.4,29.95,SSW,194,3.0,8.0,56,0.00,,SKC,0.00,VWS V14.01,2013-05-26 01:35:00,
2013-05-25 18:40:00,63.6,48.6,29.95,SSE,160,5.0,6.0,58,0.00,,SKC,0.00,VWS V14.01,2013-05-26 01:40:00,
2013-05-25 18:45:00,63.3,48.7,29.95,South,173,1.0,5.0,59,0.00,,SKC,0.00,VWS V14.01,2013-05-26 01:45:00,
2013-05-25 18:50:00,63.0,48.9,29.95,South,175,1.0,6.0,60,0.00,,SKC,0.00,VWS V14.01,2013-05-26 01:50:00,
2013-05-25 18:55:00,62.9,48.8,29.95,SSE,167,3.0,6.0,60,0.00,,SKC,0.00,VWS V14.01,2013-05-26 01:55:00,
2013-05-25 19:00:00,62.7,48.6,29.95,SSE,164,0.0,6.0,60,0.00,,SKC,0.00,VWS V14.01,2013-05-26 02:00:00,
2013-05-25 19:10:00,62.4,48.8,29.95,WSW,241,0.0,2.0,61,0.00,,SKC,0.00,VWS V14.01,2013-05-26 02:10:00,
2013-05-25 19:15:00,62.3,48.7,29.95,WSW,243,1.0,1.0,61,0.00,,SKC,0.00,VWS V14.01,2013-05-26 02:15:00,
2013-05-25 19:20:00,62.1,48.5,29.95,South,181,6.0,6.0,61,0.00,,SKC,0.00,VWS V14.01,2013-05-26 02:20:00,
2013-05-25 19:25:00,61.5,48.4,29.95,South,179,0.0,6.0,62,0.00,,SKC,0.00,VWS V14.01,2013-05-26 02:25:00,
2013-05-25 19:30:00,61.3,48.6,29.95,WSW,257,0.0,4.0,63,0.00,,SKC,0.00,VWS V14.01,2013-05-26 02:30:00,
2013-05-25 19:35:00,61.0,48.3,29.95,SSE,148,4.0,5.0,63,0.00,,SKC,0.00,VWS V14.01,2013-05-26 02:35:00,
2013-05-25 19:40:00,60.7,48.0,29.95,SSW,210,0.0,4.0,63,0.00,,SKC,0.00,VWS V14.01,2013-05-26 02:40:00,
2013-05-25 19:45:00,60.4,47.8,29.95,South,184,0.0,6.0,63,0.00,,SKC,0.00,VWS V14.01,2013-05-26 02:45:00,
2013-05-25 19:50:00,60.2,48.0,29.96,SSW,207,2.0,4.0,64,0.00,,SKC,0.00,VWS V14.01,2013-05-26 02:50:00,
2013-05-25 19:55:00,60.0,47.8,29.96,SSW,193,0.0,4.0,64,0.00,,SKC,0.00,VWS V14.01,2013-05-26 02:55:00,
2013-05-25 20:00:00,59.7,47.5,29.96,West,264,0.0,4.0,64,0.00,,SKC,0.00,VWS V14.01,2013-05-26 03:00:00,
2013-05-25 20:10:00,59.2,47.5,29.96,South,184,1.0,4.0,65,0.00,,SKC,0.00,VWS V14.01,2013-05-26 03:10:00,
2013-05-25 20:20:00,59.0,47.7,29.96,South,186,2.0,2.0,66,0.00,,SKC,0.00,VWS V14.01,2013-05-26 03:20:00,
2013-05-25 20:25:00,58.7,47.8,29.96,WNW,287,0.0,5.0,67,0.00,,SKC,0.00,VWS V14.01,2013-05-26 03:25:00,
2013-05-25 20:30:00,58.5,47.6,29.96,WNW,287,0.0,0.0,67,0.00,,SKC,0.00,VWS V14.01,2013-05-26 03:30:00,
2013-05-25 20:35:00,58.3,47.8,29.96,South,179,1.0,4.0,68,0.00,,SKC,0.00,VWS V14.01,2013-05-26 03:35:00,
2013-05-25 20:40:00,58.2,47.7,29.96,South,180,4.0,4.0,68,0.00,,SKC,0.00,VWS V14.01,2013-05-26 03:40:00,
2013-05-25 20:45:00,58.0,47.5,29.96,ESE,123,0.0,5.0,68,0.00,,SKC,0.00,VWS V14.01,2013-05-26 03:45:00,
2013-05-25 20:55:00,57.8,47.3,29.97,South,171,1.0,7.0,68,0.00,,SKC,0.00,VWS V14.01,2013-05-26 03:55:00,
2013-05-25 21:00:00,57.7,47.2,29.97,SSW,203,1.0,7.0,68,0.00,,SKC,0.00,VWS V14.01,2013-05-26 04:00:00,
2013-05-25 21:05:00,57.7,47.2,29.97,SW,219,1.0,8.0,68,0.00,,SKC,0.00,VWS V14.01,2013-05-26 04:05:00,
2013-05-25 21:10:00,57.6,47.1,29.97,South,190,0.0,5.0,68,0.00,,SKC,0.00,VWS V14.01,2013-05-26 04:10:00,
2013-05-25 21:15:00,57.5,47.0,29.97,SW,222,3.0,3.0,68,0.00,,SKC,0.00,VWS V14.01,2013-05-26 04:15:00,
2013-05-25 21:20:00,57.2,47.1,29.97,SW,226,0.0,7.0,69,0.00,,SKC,0.00,VWS V14.01,2013-05-26 04:20:00,
2013-05-25 21:25:00,56.9,47.2,29.97,WSW,249,1.0,5.0,70,0.00,,SKC,0.00,VWS V14.01,2013-05-26 04:25:00,
2013-05-25 21:35:00,56.7,47.4,29.97,South,178,3.0,9.0,71,0.00,,SKC,0.00,VWS V14.01,2013-05-26 04:35:00,
2013-05-25 21:40:00,56.5,47.6,29.97,South,178,2.0,7.0,72,0.00,,SKC,0.00,VWS V14.01,2013-05-26 04:40:00,
2013-05-25 21:45:00,56.4,47.5,29.98,SSW,209,0.0,6.0,72,0.00,,SKC,0.00,VWS V14.01,2013-05-26 04:45:00,
2013-05-25 21:55:00,56.2,47.7,29.98,South,172,2.0,6.0,73,0.00,,SKC,0.00,VWS V14.01,2013-05-26 04:55:00,
2013-05-25 22:00:00,56.0,47.5,29.98,SSW,213,0.0,5.0,73,0.00,,SKC,0.00,VWS V14.01,2013-05-26 05:00:00,
2013-05-25 22:05:00,55.9,47.4,29.98,West,275,0.0,6.0,73,0.00,,SKC,0.00,VWS V14.01,2013-05-26 05:05:00,
2013-05-25 22:15:00,55.7,47.5,29.98,SW,225,1.0,5.0,74,0.00,,SKC,0.00,VWS V14.01,2013-05-26 05:15:00,
2013-05-25 22:20:00,55.5,47.7,29.99,WSW,254,0.0,3.0,75,0.00,,SKC,0.00,VWS V14.01,2013-05-26 05:20:00,
2013-05-25 22:25:00,55.4,47.6,29.99,West,260,0.0,5.0,75,0.00,,SKC,0.00,VWS V14.01,2013-05-26 05:25:00,
2013-05-25 22:30:00,55.3,47.5,29.99,West,269,3.0,3.0,75,0.00,,SKC,0.00,VWS V14.01,2013-05-26 05:30:00,
2013-05-25 22:35:00,55.2,47.4,29.98,SSE,159,0.0,5.0,75,0.00,,SKC,0.00,VWS V14.01,2013-05-26 05:35:00,
2013-05-25 22:40:00,55.2,47.4,29.99,West,267,0.0,6.0,75,0.00,,SKC,0.00,VWS V14.01,2013-05-26 05:40:00,
2013-05-25 22:45:00,55.3,47.5,29.99,South,172,1.0,7.0,75,0.00,,SKC,0.00,VWS V14.01,2013-05-26 05:45:00,
2013-05-25 22:55:00,55.4,47.6,29.99,SSE,148,5.0,7.0,75,0.00,,SKC,0.00,VWS V14.01,2013-05-26 05:55:00,
2013-05-25 23:00:00,55.4,47.6,29.99,SSW,211,0.0,5.0,75,0.00,,SKC,0.00,VWS V14.01,2013-05-26 06:00:00,
2013-05-25 23:10:00,55.3,47.5,29.99,WSW,239,0.0,9.0,75,0.00,,SKC,0.00,VWS V14.01,2013-05-26 06:10:00,
2013-05-25 23:15:00,55.2,47.8,29.99,WSW,240,1.0,6.0,76,0.00,,SKC,0.00,VWS V14.01,2013-05-26 06:15:00,
2013-05-25 23:25:00,55.3,47.5,29.99,WSW,246,0.0,3.0,75,0.00,,SKC,0.00,VWS V14.01,2013-05-26 06:25:00,
2013-05-25 23:30:00,55.2,47.4,29.99,South,188,2.0,3.0,75,0.00,,SKC,0.00,VWS V14.01,2013-05-26 06:30:00,
2013-05-25 23:35:00,55.2,47.4,29.99,NW,306,1.0,4.0,75,0.00,,SKC,0.00,VWS V14.01,2013-05-26 06:35:00,
2013-05-25 23:45:00,55.3,47.5,30.00,South,176,3.0,6.0,75,0.00,,SKC,0.00,VWS V14.01,2013-05-26 06:45:00,
2013-05-25 23:55:00,55.4,47.6,29.99,SW,235,0.0,6.0,75,0.00,,SKC,0.00,VWS V14.01,2013-05-26 06:55:00,